[Date Prev][Date Next][Thread Prev][Thread Next] - [Date Index][Thread Index][Author Index]

2 Line ISS Keps 10-11



ISS
1 25544U 98067A   03284.47038211  .00019198  00000-0  21826-3 0  6204
2 25544  51.6311 154.2274 0006627  28.5769  39.5534 15.62312871279173


----
Via the sarex mailing list at AMSAT.ORG courtesy of AMSAT-NA.
To unsubscribe, send "unsubscribe sarex" to Majordomo@amsat.org



AMSAT Top AMSAT Home